N8PFF Weather Reports


time (UTC)temp
C
wind
direction
speed
KPH
gust
KPH
rain 1hr
cm
rain 24hr
cm
rain mn
cm
humidity
%
barometer
mb
20260510190018 18 266 4.8 8.0 0.00 0.00 0.00 48 1016.9
20260510184523 19 67 3.2 11.3 0.00 0.00 0.00 55 1016.7
20260510183031 19 298 1.6 11.3 0.00 0.00 0.00 49 1016.9
20260510181546 19 295 4.8 17.7 0.00 0.00 0.00 50 1016.8
20260510180103 18 309 0.0 12.9 0.00 0.00 0.00 51 1016.4
20260510174558 18 37 1.6 11.3 0.00 0.00 0.00 53 1016.8
20260510173018 17 321 6.4 14.5 0.00 0.00 0.00 51 1016.6
20260510171527 16 111 3.2 14.5 0.00 0.00 0.00 53 1016.8
20260510170040 17 252 3.2 14.5 0.00 0.00 0.00 56 1017.0
20260510164557 16 262 3.2 16.1 0.00 0.00 0.00 60 1016.9
20260510163005 17 32 3.2 9.7 0.00 0.00 0.00 63 1016.8
20260510161519 16 45 3.2 11.3 0.00 0.00 0.00 65 1016.6
20260510160027 15 316 4.8 12.9 0.00 0.00 0.00 70 1016.6
20260510154534 15 52 4.8 11.3 0.00 0.00 0.00 69 1016.3
20260510153058 15 19 1.6 12.9 0.00 0.00 0.00 73 1016.2
20260510151506 15 95 4.8 12.9 0.00 0.00 0.00 73 1016.1
20260510150016 15 293 3.2 12.9 0.00 0.00 0.00 77 1015.8
20260510144536 14 17 1.6 9.7 0.00 0.00 0.00 79 1015.7
20260510143047 13 309 4.8 9.7 0.00 0.00 0.00 78 1015.7
20260510141503 13 359 0.0 12.9 0.00 0.00 0.00 79 1015.4
20260510140029 13 45 3.2 6.4 0.00 0.00 0.00 80 1015.5
20260510134532 13 95 1.6 11.3 0.00 0.05 0.00 82 1015.4
20260510133040 13 304 1.6 6.4 0.00 0.05 0.00 86 1014.8
20260510131552 12 289 0.0 8.0 0.00 0.05 0.00 87 1014.7
20260510130012 12 51 0.0 8.0 0.00 0.05 0.00 87 1014.5
20260510124531 12 311 1.6 8.0 0.00 0.08 0.00 88 1014.7
20260510123039 12 283 0.0 8.0 0.00 0.08 0.00 89 1014.5
20260510121546 12 290 0.0 0.0 0.00 0.08 0.00 90 1014.3
20260510120045 12 299 0.0 3.2 0.00 0.08 0.00 89 1014.1
20260510114543 12 323 0.0 3.2 0.00 0.23 0.00 89 1013.9
20260510113054 12 324 1.6 6.4 0.00 0.23 0.00 89 1013.7
20260510111557 12 290 1.6 6.4 0.00 0.23 0.00 88 1013.1
20260510110016 12 359 3.2 8.0 0.00 0.23 0.00 89 1012.8
20260510104525 12 340 0.0 4.8 0.00 0.28 0.00 90 1012.3
20260510103034 12 312 0.0 4.8 0.00 0.28 0.00 93 1012.0
20260510101551 11 286 0.0 1.6 0.00 0.28 0.00 95 1012.0
20260510100002 11 154 0.0 0.0 0.00 0.28 0.00 94 1011.5
20260510094518 11 154 0.0 0.0 0.00 0.36 0.00 94 1011.3
20260510093040 11 154 0.0 0.0 0.00 0.36 0.00 93 1011.0
20260510091534 12 153 0.0 0.0 0.00 0.36 0.00 92 1010.5
20260510090040 12 153 0.0 0.0 0.00 0.36 0.00 91 1010.5
20260510084549 12 153 0.0 0.0 0.00 0.46 0.00 90 1010.1
20260510083053 12 162 0.0 0.0 0.00 0.46 0.00 90 1010.0
20260510081625 12 151 0.0 0.0 0.00 0.46 0.00 90 1010.1
20260510080008 13 148 0.0 0.0 0.00 0.46 0.00 88 1010.0
20260510074523 13 148 0.0 0.0 0.00 0.48 0.00 86 1009.9
20260510073026 14 162 0.0 0.0 0.00 0.48 0.00 84 1009.7
20260510071530 15 165 0.0 3.2 0.00 0.48 0.00 82 1009.7
20260510070040 15 147 0.0 3.2 0.00 0.48 0.00 82 1009.8
20260510064556 15 191 0.0 3.2 0.00 0.48 0.00 81 1009.8
20260510063057 15 293 0.0 4.8 0.00 0.48 0.00 80 1010.0
20260510061509 15 243 0.0 3.2 0.00 0.48 0.00 81 1010.0
20260510054515 15 353 0.0 4.8 0.00 0.48 0.00 80 1009.7
20260510053038 15 163 1.6 4.8 0.00 0.48 0.00 79 1009.9
20260510051531 15 167 1.6 11.3 0.00 0.48 0.00 78 1009.7
20260510050046 15 162 1.6 6.4 0.00 0.48 0.00 77 1009.8
20260510044556 16 164 0.0 9.7 0.00 0.48 0.00 76 1009.6
20260510043102 16 168 3.2 8.0 0.00 0.48 0.00 75 1009.4
20260510041514 16 148 1.6 9.7 0.00 0.48 0.00 74 1009.3
20260510040038 16 150 3.2 9.7 0.00 0.48 0.00 73 1009.2
20260510034536 16 167 1.6 8.0 0.00 0.48 0.48 73 1009.2
20260510033057 16 148 3.2 9.7 0.00 0.48 0.48 73 1009.2
20260510031542 16 221 1.6 11.3 0.00 0.48 0.48 72 1009.0
20260510030051 16 149 0.0 6.4 0.00 0.48 0.48 72 1008.9
20260510024553 16 211 1.6 9.7 0.00 0.48 0.48 71 1008.9
20260510023010 16 188 0.0 3.2 0.00 0.48 0.48 71 1008.8
20260510021520 16 170 1.6 4.8 0.00 0.48 0.48 71 1008.6
20260510020040 17 169 0.0 3.2 0.00 0.48 0.48 70 1008.5
20260510014558 17 203 0.0 0.0 0.00 0.48 0.48 69 1008.2
20260510013059 17 160 1.6 6.4 0.00 0.48 0.48 67 1008.1
20260510011514 17 224 0.0 3.2 0.00 0.48 0.48 67 1008.0
20260510010025 18 143 0.0 3.2 0.00 0.48 0.48 65 1007.8
20260510004531 18 163 0.0 4.8 0.00 0.48 0.48 63 1007.7
20260510003025 19 205 0.0 8.0 0.00 0.48 0.48 62 1007.4
20260510001536 20 188 1.6 6.4 0.00 0.48 0.48 59 1007.2
20260510000055 20 232 1.6 6.4 0.00 0.48 0.48 58 1007.1
20260509234602 21 136 1.6 14.5 0.00 0.48 0.48 56 1006.9
20260509233011 21 222 4.8 25.7 0.00 0.48 0.48 55 1006.8
20260509231519 22 186 3.2 17.7 0.00 0.48 0.48 55 1006.7
20260509230028 22 197 3.2 16.1 0.00 0.48 0.48 55 1006.7
20260509224536 22 274 6.4 16.1 0.00 0.48 0.48 54 1006.7
20260509223058 22 182 1.6 17.7 0.00 0.48 0.48 56 1006.7
20260509221602 22 162 4.8 16.1 0.00 0.48 0.48 53 1006.8
20260509220018 22 266 6.4 22.5 0.00 0.48 0.48 54 1007.2
20260509214518 22 242 8.0 20.9 0.00 0.48 0.48 56 1007.1
20260509213028 22 188 6.4 19.3 0.00 0.48 0.48 54 1007.1
20260509211532 22 204 9.7 24.1 0.00 0.48 0.48 53 1007.1
20260509210051 22 278 6.4 16.1 0.00 0.48 0.48 56 1007.0
20260509204509 22 260 6.4 17.7 0.00 0.48 0.48 56 1007.2
20260509203025 22 146 3.2 16.1 0.00 0.48 0.48 56 1007.5
20260509201509 21 212 4.8 14.5 0.00 0.48 0.48 56 1007.6
20260509200012 21 238 3.2 12.9 0.00 0.48 0.48 60 1007.8
20260509194528 21 237 6.4 14.5 0.00 0.48 0.48 58 1008.1
20260509193036 21 137 6.4 17.7 0.00 0.48 0.48 61 1008.3
20260509191534 20 243 6.4 16.1 0.00 0.48 0.48 63 1008.4